Photometre #356[Polarized_P] Kyiv AOT

File : 20220926_356.hum

26/09/2022,04:45:51,TEMP=13.8,BA=5.32,STAT.h
26/09/2022,04:49:56,TEMP=13.8,BA=5.32,STAT.h
26/09/2022,04:54:43,TEMP=13.8,BA=5.40,STAT.h
26/09/2022,05:00:24,TEMP=13.8,BA=5.44,STAT.h
26/09/2022,05:07:18,TEMP=13.8,BA=5.44,STAT.h
26/09/2022,05:15:49,TEMP=13.8,BA=5.40,STAT.h
26/09/2022,05:26:39,TEMP=13.8,BA=5.44,STAT.h
26/09/2022,05:31:52,TEMP=13.8,BA=5.44,STAT.h
26/09/2022,05:37:43,TEMP=13.8,BA=5.44,STAT.h
26/09/2022,05:44:21,TEMP=13.8,BA=5.48,STAT.h
26/09/2022,05:51:57,TEMP=13.8,BA=5.52,STAT.h
26/09/2022,06:00:44,TEMP=13.8,BA=5.56,STAT.h
26/09/2022,06:11:04,TEMP=13.8,BA=5.56,STAT.h
26/09/2022,06:23:24,TEMP=13.8,BA=5.52,STAT.h
26/09/2022,06:38:30,TEMP=13.8,BA=5.48,STAT.h
26/09/2022,06:49:41,TEMP=13.8,BA=5.52,STAT.h
26/09/2022,07:04:41,TEMP=13.8,BA=5.60,STAT.h
26/09/2022,07:19:41,TEMP=13.8,BA=5.60,STAT.h
26/09/2022,07:34:41,TEMP=13.8,BA=5.60,STAT.h
26/09/2022,07:49:41,TEMP=13.8,BA=5.60,STAT.h
26/09/2022,08:04:41,TEMP=13.8,BA=5.60,STAT.h
26/09/2022,08:19:41,TEMP=13.8,BA=5.60,STAT.h
26/09/2022,08:34:41,TEMP=13.8,BA=5.60,STAT.h
26/09/2022,08:50:05,TEMP=12.3,BA=5.56,STAT.F
26/09/2022,09:05:04,TEMP=12.6,BA=5.60,STAT.D=Abs.,ExtBa=13.03
26/09/2022,09:20:04,TEMP=13.2,BA=5.60,STAT.D=Abs.,ExtBa=13.43
26/09/2022,09:35:04,TEMP=15.2,BA=5.64,STAT.D=Abs.,ExtBa=14.13
26/09/2022,09:50:05,TEMP=16.9,BA=5.60,STAT.F
26/09/2022,10:05:03,TEMP=19.5,BA=5.60,STAT.D=Abs.,ExtBa=14.47
26/09/2022,10:20:04,TEMP=21.0,BA=5.60,STAT.D=Abs.,ExtBa=14.48
26/09/2022,10:35:04,TEMP=21.9,BA=5.60,STAT.D=Abs.,ExtBa=14.44
26/09/2022,10:50:05,TEMP=22.6,BA=5.56,STAT.F
26/09/2022,11:05:03,TEMP=22.9,BA=5.56,STAT.D=Abs.,ExtBa=14.24
26/09/2022,11:20:03,TEMP=22.3,BA=5.56,STAT.D=Abs.,ExtBa=14.17
26/09/2022,11:35:03,TEMP=20.6,BA=5.60,STAT.D=Abs.,ExtBa=13.91
26/09/2022,11:50:05,TEMP=19.0,BA=5.52,STAT.F
26/09/2022,12:05:03,TEMP=18.3,BA=5.60,STAT.D=Abs.,ExtBa=13.72
26/09/2022,12:20:03,TEMP=18.1,BA=5.60,STAT.D=Abs.,ExtBa=13.69
26/09/2022,12:35:03,TEMP=17.8,BA=5.60,STAT.D=Abs.,ExtBa=13.62
26/09/2022,12:50:05,TEMP=17.9,BA=5.52,STAT.F
26/09/2022,13:01:16,TEMP=17.8,BA=5.60,STAT.A=Abs.,ExtBa=13.80
26/09/2022,13:16:21,TEMP=17.5,BA=5.60,STAT.A=Abs.,ExtBa=13.65
26/09/2022,13:28:41,TEMP=17.1,BA=5.60,STAT.A=Abs.,ExtBa=13.46
26/09/2022,13:39:01,TEMP=16.8,BA=5.52,STAT.C=Abs.,ExtBa=13.29
26/09/2022,13:47:48,TEMP=16.6,BA=5.52,STAT.A=Abs.,ExtBa=13.27
26/09/2022,13:55:24,TEMP=16.6,BA=5.60,STAT.A=Abs.,ExtBa=13.21
26/09/2022,14:02:02,TEMP=16.6,BA=5.60,STAT.A=Abs.,ExtBa=13.06
26/09/2022,14:07:53,TEMP=16.5,BA=5.60,STAT.A=Abs.,ExtBa=12.92
26/09/2022,14:13:06,TEMP=16.6,BA=5.60,STAT.B=Abs.,ExtBa=12.80
26/09/2022,14:23:56,TEMP=16.3,BA=5.56,STAT.A=Abs.,ExtBa=12.67
26/09/2022,14:32:27,TEMP=16.0,BA=5.56,STAT.A=Abs.,ExtBa=12.56
26/09/2022,14:39:21,TEMP=15.8,BA=5.56,STAT.A=Abs.,ExtBa=12.46
26/09/2022,14:45:02,TEMP=15.6,BA=5.40,STAT.A=Abs.,ExtBa=12.39
26/09/2022,14:49:49,TEMP=15.4,BA=5.40,STAT.A=Abs.,ExtBa=12.35
26/09/2022,14:53:54,TEMP=15.3,BA=5.40,STAT.A=Abs.,ExtBa=12.35